Regional Weather Roundup
Issued by NWS

Home | Current Version | Previous Version | Text Only | Print | Product List | Glossary On
Versions: 1 2 3 4 5 6 7 8 9 10 11 12 13 14 15 16 17 18 19 20 21 22 23 24 25 26 27 28 29 30 31 32 33 34 35 36 37 38 39 40 41 42 43 44 45 46 47 48 49 50
000
ASUS42 KKEY 050810
RWRKEY

FLORIDA REGIONAL WEATHER ROUNDUP FOR THE FLORIDA KEYS
NATIONAL WEATHER SERVICE KEY WEST FLORIDA
300 AM EST THU MAR 05 2015

...SOUTH FLORIDA AND THE KEYS...

CITY           SKY/WX    TMP DP  RH WIND       PRES   REMARKS
FORT MYERS     CLEAR     68  67  96 SE6       30.04F
SW REGIONAL AP CLEAR     67  65  93 E5        30.05F
NAPLES         PTCLDY    70  69  97 SE9       30.04F
MIAMI          PTCLDY    75  67  76 SE14      30.07F
WEST KENDALL   PTCLDY    73  68  84 SE10      30.06F
HOMESTEAD      CLEAR     74  67  79 SE10      30.06F
MARATHON       CLEAR     76  71  85 SE14G21   30.04F
BOCA CHICA NAS CLEAR     75  70  84 SE15      30.04F
KEY WEST INTL  CLEAR     75  72  90 SE12      30.04F

...INTERNATIONAL WEATHER...

CITY           SKY/WX    TMP DP  RH WIND       PRES   REMARKS
NASSAU BAHAMAS PTCLDY    75  70  83 SE7       30.11F
CANCUN MEXICO  PTCLDY    79  73  83 SE12      29.96F
COZUMEL MEXICO PTCLDY    72  70  94 SE6       29.95F

ADJACENT COASTAL WATERS...

STATION/POSITION TIME  SKY/WX   TEMP    WIND        PRES    WAVE
                                AIR SEA DIR/SP/G            HT/PER
                 (UTC)          (F)     (DEG/KT/KT) (MB)    (FT/S)
PULASKI SHOAL LI 0700            75     140/ 16/ 18 1017.0F
SAND KEY         0750            76     140/ 16/ 19 1017.0F
SOMBRERO KEY     0800            76     140/ 21/ 23 1017.6F
LONG KEY         0700            76 77  140/ 18/ 20 1018.4F
MOLASSES REEF    0800            76 75  140/ 19/ 21 1017.7F
FOWEY ROCKS      NOT AVBL
Buoy 42080       NOT AVBL

$$


USA.gov is the U.S. government's official web portal to all federal, state and local government web resources and services.